Date String (YYYY-MM-DD hh:mm:ss) UTC,Instrument flags,Ambient pressure (hPa),Sample flow (lpm),Bypass flow (lpm),Sample temperature (°C),Ambient temperature (°C),ASC tube jacket temperature (°C),LED temperature (°C),Box temperature (°C),Sample RH (%),Span deviation,Mass concentration (μg/m³),Mass concentration (μg/m³),Mass concentration (μg/m³)
DateTimeUTC,F1_M11,P_M11,Q1_M11,Q2_M11,T1_M11,T2_M11,T3_M11,T4_M11,T5_M11,U1_M11,ZSPAN_M11,X0_M11,X2_M11,X1_M11
2022-12-26 00:00:00,,0825.9,4.97,0.00,21.5,20.2,00.0,30.4,23.1,14.9,0000.0,0000.73,0000.44,0000.32
2022-12-26 00:01:00,,0825.8,4.98,0.00,21.5,20.2,00.0,30.4,23.1,15.1,0000.0,0000.70,0000.42,0000.31
2022-12-26 00:02:00,,0825.9,5.01,0.00,21.5,20.2,00.0,30.4,23.0,15.3,0000.0,0000.68,0000.41,0000.31
2022-12-26 00:03:00,,0825.9,5.03,0.00,21.5,20.2,00.0,30.4,23.1,15.2,0000.0,0000.67,0000.41,0000.31
2022-12-26 00:04:00,,0825.9,5.00,0.00,21.5,20.2,00.0,30.4,23.1,14.8,0000.0,0000.67,0000.41,0000.31
2022-12-26 00:05:00,,0825.8,4.96,0.00,21.5,20.2,00.0,30.4,23.1,14.8,0000.0,0000.68,0000.41,0000.31
2022-12-26 00:06:00,,0826.0,4.98,0.00,21.5,20.2,00.0,30.4,23.1,14.8,0000.0,0000.70,0000.43,0000.32
2022-12-26 00:07:00,,0825.9,5.03,0.00,21.5,20.2,00.0,30.4,23.2,15.2,0000.0,0000.71,0000.43,0000.31
2022-12-26 00:08:00,,0826.0,5.03,0.00,21.5,20.2,00.0,30.4,23.3,14.9,0000.0,0000.68,0000.42,0000.31
2022-12-26 00:09:00,,0826.0,4.99,0.00,21.5,20.2,00.0,30.4,23.3,15.0,0000.0,0000.64,0000.39,0000.31
2022-12-26 00:10:00,,0826.1,4.97,0.00,21.5,20.2,00.0,30.4,23.2,14.8,0000.0,0000.54,0000.37,0000.30
2022-12-26 00:11:00,,0826.2,5.01,0.00,21.5,20.2,00.0,30.4,23.2,14.8,0000.0,0000.51,0000.36,0000.31
2022-12-26 00:12:00,,0826.2,5.02,0.00,21.5,20.2,00.0,30.4,23.2,14.8,0000.0,0000.57,0000.37,0000.31
2022-12-26 00:13:00,,0826.1,4.99,0.00,21.5,20.2,00.0,30.4,23.2,15.0,0000.0,0000.65,0000.39,0000.32
2022-12-26 00:14:00,,0826.1,4.98,0.00,21.5,20.1,00.0,30.4,23.2,14.6,0000.0,0000.67,0000.40,0000.33
2022-12-26 00:15:00,,0826.2,4.97,0.00,21.5,20.1,00.0,30.4,23.2,15.0,0000.0,0000.77,0000.41,0000.33
2022-12-26 00:16:00,,0826.2,5.01,0.00,21.5,20.1,00.0,30.4,23.1,15.0,0000.0,0000.87,0000.43,0000.33
2022-12-26 00:17:00,,0826.1,5.02,0.00,21.5,20.1,00.0,30.4,23.1,15.3,0000.0,0000.90,0000.45,0000.34
2022-12-26 00:18:00,,0826.2,5.03,0.00,21.5,20.1,00.0,30.4,23.1,15.2,0000.0,0000.88,0000.44,0000.34
2022-12-26 00:19:00,,0826.2,5.00,0.00,21.4,20.1,00.0,30.4,23.1,14.5,0000.0,0000.84,0000.42,0000.34
2022-12-26 00:20:00,,0826.1,4.97,0.00,21.5,20.1,00.0,30.4,23.1,14.7,0000.0,0000.84,0000.43,0000.35
2022-12-26 00:21:00,,0826.2,4.97,0.00,21.4,20.1,00.0,30.4,23.1,14.5,0000.0,0000.84,0000.43,0000.35
2022-12-26 00:22:00,,0826.2,5.01,0.00,21.5,20.1,00.0,30.4,23.1,14.6,0000.0,0000.83,0000.42,0000.35
2022-12-26 00:23:00,,0826.1,5.00,0.00,21.4,20.1,00.0,30.4,23.2,14.5,0000.0,0000.79,0000.42,0000.35
2022-12-26 00:24:00,,0826.2,5.02,0.00,21.4,20.1,00.0,30.4,23.0,14.7,0000.0,0000.70,0000.40,0000.34
2022-12-26 00:25:00,,0826.1,4.99,0.00,21.4,20.1,00.0,30.4,23.0,15.2,0000.0,0001.03,0000.40,0000.34
2022-12-26 00:26:00,,0826.0,4.98,0.00,21.4,20.1,00.0,30.3,23.0,15.3,0000.0,0002.52,0000.43,0000.34
2022-12-26 00:27:00,,0826.0,4.97,0.00,21.4,20.1,00.0,30.3,23.1,14.9,0000.0,0002.45,0000.43,0000.35
2022-12-26 00:28:00,,0826.1,5.02,0.00,21.4,20.1,00.0,30.3,23.1,14.8,0000.0,0002.40,0000.40,0000.35
2022-12-26 00:29:00,,0826.1,4.99,0.00,21.4,20.1,00.0,30.3,23.0,15.2,0000.0,0002.42,0000.41,0000.35
2022-12-26 00:30:00,,0826.0,5.01,0.00,21.4,20.1,00.0,30.3,23.0,15.3,0000.0,0002.48,0000.44,0000.36
2022-12-26 00:31:00,,0826.0,5.01,0.00,21.4,20.1,00.0,30.3,23.0,15.4,0000.0,0002.49,0000.45,0000.37
2022-12-26 00:32:00,,0825.9,4.97,0.00,21.4,20.1,00.0,30.3,23.0,15.7,0000.0,0002.51,0000.46,0000.38
2022-12-26 00:33:00,,0825.8,4.98,0.00,21.4,20.1,00.0,30.3,23.1,16.0,0000.0,0002.53,0000.48,0000.39
2022-12-26 00:34:00,,0825.8,5.02,0.00,21.4,20.1,00.0,30.3,23.1,16.0,0000.0,0002.55,0000.49,0000.40
2022-12-26 00:35:00,,0826.0,5.01,0.00,21.4,20.0,00.0,30.3,23.1,15.8,0000.0,0002.61,0000.51,0000.41
2022-12-26 00:36:00,,0826.1,5.00,0.00,21.4,20.5,00.0,30.2,23.3,15.7,0000.0,0002.62,0000.51,0000.42
2022-12-26 00:37:00,,0826.1,4.96,0.00,21.5,21.4,00.0,30.2,23.5,15.6,0000.0,0001.19,0000.51,0000.43
2022-12-26 00:38:00,,0826.2,5.00,0.00,21.6,22.0,00.0,30.3,23.8,15.6,0000.0,0000.79,0000.51,0000.43
2022-12-26 00:39:00,,0826.2,5.05,0.00,21.7,21.7,00.0,30.4,23.7,15.3,0000.0,0000.85,0000.53,0000.43
2022-12-26 00:40:00,,0826.2,5.00,0.00,21.7,21.4,00.0,30.4,23.6,15.6,0000.0,0000.93,0000.53,0000.43
2022-12-26 00:41:00,,0826.2,4.97,0.00,21.7,21.1,00.0,30.4,23.6,15.4,0000.0,0000.90,0000.52,0000.43
2022-12-26 00:42:00,,0826.1,5.01,0.00,21.7,21.0,00.0,30.4,23.5,15.3,0000.0,0000.95,0000.54,0000.44
2022-12-26 00:43:00,,0826.2,5.02,0.00,21.7,20.8,00.0,30.5,23.5,15.3,0000.0,0000.96,0000.55,0000.44
2022-12-26 00:44:00,,0826.2,4.99,0.00,21.7,20.7,00.0,30.5,23.5,15.3,0000.0,0000.96,0000.54,0000.43
2022-12-26 00:45:00,,0826.2,4.98,0.00,21.7,20.6,00.0,30.5,23.4,15.5,0000.0,0000.97,0000.54,0000.43
2022-12-26 00:46:00,,0826.2,4.97,0.00,21.7,20.5,00.0,30.5,23.4,15.4,0000.0,0000.94,0000.54,0000.42
2022-12-26 00:47:00,,0826.2,4.98,0.00,21.6,20.5,00.0,30.5,23.4,15.4,0000.0,0000.89,0000.53,0000.42
2022-12-26 00:48:00,,0826.2,5.02,0.00,21.6,20.4,00.0,30.5,23.3,15.5,0000.0,0000.91,0000.53,0000.42
2022-12-26 00:49:00,,0826.1,5.03,0.00,21.6,20.3,00.0,30.5,23.3,15.3,0000.0,0000.92,0000.53,0000.41
2022-12-26 00:50:00,,0826.2,5.02,0.00,21.6,20.3,00.0,30.5,23.3,15.3,0000.0,0000.88,0000.52,0000.41
2022-12-26 00:51:00,,0826.2,4.97,0.00,21.6,20.2,00.0,30.5,23.3,15.3,0000.0,0000.78,0000.50,0000.41
2022-12-26 00:52:00,,0826.2,4.97,0.00,21.6,20.2,00.0,30.5,23.2,15.4,0000.0,0000.75,0000.50,0000.41
2022-12-26 00:53:00,,0826.2,5.01,0.00,21.5,20.2,00.0,30.5,23.2,15.6,0000.0,0000.74,0000.50,0000.41
2022-12-26 00:54:00,,0826.2,5.02,0.00,21.5,20.2,00.0,30.5,23.2,15.7,0000.0,0000.79,0000.48,0000.40
2022-12-26 00:55:00,,0826.2,5.02,0.00,21.5,20.2,00.0,30.5,23.2,15.7,0000.0,0000.85,0000.50,0000.40
2022-12-26 00:56:00,,0826.2,5.00,0.00,21.5,20.1,00.0,30.5,23.2,15.7,0000.0,0000.83,0000.49,0000.40
2022-12-26 00:57:00,,0826.1,4.98,0.00,21.5,20.1,00.0,30.4,23.2,15.8,0000.0,0000.82,0000.49,0000.40
2022-12-26 00:58:00,,0826.1,5.00,0.00,21.5,20.1,00.0,30.4,23.2,15.6,0000.0,0000.82,0000.49,0000.40
2022-12-26 00:59:00,,0826.0,5.03,0.00,21.5,20.0,00.0,30.4,23.1,15.7,0000.0,0000.81,0000.49,0000.40
